QZS-1 (QZSS/PRN 183)

Last updated on May 20, 2019, 3:10 a.m. UTC

1 37158U 10045A   19138.90005806 -.00000116  00000-0  00000+0 0  9992
2 37158  41.3036 149.2172 0756533 270.4287 278.8196  1.00283592 31788
UTC
Height (km)
Latitude
Longitude
Inclination
Orbital Period
UTC large
Height (km)
Speed (km/s)
/
Latitude / Longitude
Inclination (degrees)
Orbital Period (minutes)
Azimuth
Elevation
Range (km)
Doppler Factor
iOS Compass Heading
iOS Angle

Next 30 passes for location: Hong Kong

Rise time Rise Azimuth (degrees) Set time Set Azimuth (degrees) Duration Max altitude (degrees)

No matching passes for this satellites